PBO Station Position Time Series. Reference Frame : NAM14
Format Version,1.1.0
4-character ID,P324
Station name,BlocksburgCN2006
Begin Date, 2006-05-17
End Date, 2019-10-07
Release Date, 2019-10-08
Reference position, 40.2568380477 North Latitude, -123.6557381336 East Longitude, 509.36279 meters elevation,
Date, North (mm), East (mm), Vertical (mm), North Std. Deviation (mm), East Std. Deviation (mm),              Vertical Std. Deviation (mm), Quality,
2006-05-17,0.00, 0.00, 0.00, 2.10, 1.65, 7.44, repro,
2006-05-18,-0.82, -0.20, -2.30, 2.05, 1.56, 7.17, repro,
2006-05-19,-0.82, -1.48, 2.39, 2.18, 1.62, 7.50, repro,
2006-05-20,-0.62, -0.60, 1.84, 2.14, 1.60, 7.40, repro,
2006-05-21,-0.79, -1.44, 7.12, 2.12, 1.60, 7.35, repro,
2006-05-22,1.19, -1.41, 8.28, 2.10, 1.58, 7.23, repro,
2006-05-23,0.36, 0.19, 6.31, 2.11, 1.59, 7.27, repro,
2006-05-24,-0.21, 0.14, 1.61, 2.12, 1.59, 7.30, repro,
2006-05-25,0.36, -0.60, 1.04, 2.23, 1.66, 7.69, repro,
2006-05-26,-1.09, -1.18, 4.19, 2.24, 1.71, 7.75, repro,
2006-05-27,-0.43, -0.55, 1.71, 2.11, 1.60, 7.33, repro,
2006-05-28,-0.05, 1.06, -2.06, 2.11, 1.59, 7.30, repro,
2006-05-29,0.37, 0.47, 2.20, 2.11, 1.59, 7.30, repro,
2006-05-30,1.10, 0.06, 2.90, 2.17, 1.62, 7.49, repro,
2006-05-31,-0.14, -1.89, -1.71, 2.22, 1.69, 7.73, repro,
2006-06-01,0.55, -0.54, -0.18, 2.17, 1.64, 7.58, repro,
2006-06-02,0.69, -1.59, 13.49, 2.27, 1.70, 7.92, repro,
2006-06-03,0.05, 0.04, 0.79, 2.20, 1.66, 7.64, repro,
2006-06-04,3.33, 1.16, -2.96, 2.18, 1.62, 7.52, repro,
2006-06-05,-0.81, -0.83, -1.34, 2.16, 1.62, 7.49, repro,
2006-06-06,0.10, -1.45, 4.04, 2.18, 1.62, 7.53, repro,
2006-06-07,-0.86, -0.73, 9.05, 2.18, 1.63, 7.54, repro,
2006-06-08,0.04, -0.40, -6.78, 2.12, 1.60, 7.33, repro,
2006-06-09,-0.47, -0.47, 4.74, 2.11, 1.59, 7.24, repro,
2006-06-10,0.03, -0.16, -0.04, 2.10, 1.58, 7.27, repro,
2006-06-11,-0.42, -0.36, 0.92, 2.15, 1.63, 7.51, repro,
2006-06-12,-1.04, -1.25, 7.29, 2.14, 1.60, 7.39, repro,
2006-06-13,0.53, -0.42, -0.19, 2.18, 1.63, 7.51, repro,
2006-06-14,-0.16, -1.14, 3.54, 2.12, 1.59, 7.29, repro,
2006-06-15,-0.38, 0.72, 3.98, 2.09, 1.58, 7.26, repro,
2006-06-16,-0.86, 0.50, 3.34, 2.10, 1.60, 7.35, repro,
2006-06-17,-0.43, -0.00, 10.95, 2.13, 1.64, 7.50, repro,
2006-06-18,-1.97, -0.56, 5.57, 2.14, 1.63, 7.54, repro,
2006-06-19,0.39, -0.33, 11.19, 2.13, 1.64, 7.54, repro,
2006-06-20,-0.87, -0.10, 2.52, 2.13, 1.62, 7.46, repro,
2006-06-21,-0.71, 0.37, 5.30, 2.11, 1.64, 7.47, repro,
2006-06-22,-1.25, -0.81, 3.05, 2.12, 1.65, 7.54, repro,
2006-06-23,0.51, -1.37, -0.98, 2.13, 1.63, 7.53, repro,
2006-06-24,1.12, -1.55, 4.88, 2.15, 1.65, 7.63, repro,
2006-06-25,-0.66, -1.65, 2.40, 2.14, 1.64, 7.54, repro,
2006-06-26,0.41, -0.14, 0.04, 2.15, 1.71, 7.69, repro,
2006-06-27,-0.07, -3.57, 9.90, 2.17, 1.73, 7.76, repro,
2006-06-28,-0.46, -2.38, -3.30, 2.37, 1.81, 8.22, repro,
2006-06-29,-0.18, -0.25, 9.51, 2.08, 1.62, 7.49, repro,
2006-06-30,-0.73, -1.70, 3.11, 2.09, 1.60, 7.40, repro,
2006-07-01,-0.19, -0.99, -1.95, 2.11, 1.61, 7.44, repro,
2006-07-02,0.32, -1.86, -1.88, 2.14, 1.70, 7.77, repro,
2006-07-03,-1.05, -1.68, -5.72, 2.10, 1.60, 7.41, repro,
2006-07-04,-0.47, -1.39, 4.60, 2.09, 1.59, 7.37, repro,
2006-07-05,-1.64, -1.45, 3.94, 2.09, 1.60, 7.40, repro,
2006-07-06,0.86, -0.99, -4.65, 2.10, 1.61, 7.45, repro,
2006-07-07,0.45, -1.22, -6.57, 2.11, 1.61, 7.49, repro,
2006-07-08,-1.14, -0.46, -3.29, 2.10, 1.60, 7.43, repro,
2006-07-09,-1.46, -1.50, 0.01, 2.10, 1.60, 7.42, repro,
2006-07-10,-1.84, -1.86, -2.51, 2.11, 1.61, 7.48, repro,
2006-07-11,-0.40, -2.55, 9.39, 2.10, 1.61, 7.52, repro,
2006-07-12,0.01, -0.48, -8.46, 2.12, 1.61, 7.53, repro,
2006-07-13,-0.02, -0.35, 4.67, 2.09, 1.61, 7.47, repro,
2006-07-14,-0.12, -0.61, 2.89, 2.15, 1.66, 7.66, repro,
2006-07-15,-0.24, -0.97, 7.25, 2.09, 1.60, 7.45, repro,
2006-07-16,-0.04, -1.66, 2.01, 2.10, 1.60, 7.48, repro,
2006-07-17,-0.50, -1.28, 3.10, 2.13, 1.65, 7.75, repro,
2006-07-18,0.10, -2.15, 6.12, 2.06, 1.57, 7.28, repro,
2006-07-19,1.06, -2.99, 5.87, 2.05, 1.56, 7.21, repro,
2006-07-20,-0.01, -0.37, 6.95, 2.04, 1.57, 7.23, repro,
2006-07-21,1.34, -0.44, 3.09, 2.04, 1.57, 7.20, repro,
2006-07-22,0.19, -1.78, 3.15, 2.03, 1.57, 7.20, repro,
2006-07-23,0.06, -2.21, 2.27, 2.05, 1.56, 7.18, repro,
2006-07-24,0.68, -3.28, 6.15, 2.10, 1.63, 7.42, repro,
2006-07-25,1.55, -1.09, 5.59, 2.12, 1.59, 7.47, repro,
2006-07-26,2.36, -1.93, 3.65, 2.04, 1.57, 7.19, repro,
2006-07-27,0.45, -1.83, 6.13, 2.04, 1.57, 7.20, repro,
2006-07-28,1.44, -1.40, 5.31, 2.03, 1.55, 7.12, repro,
2006-07-29,-0.38, -1.98, 2.46, 2.08, 1.61, 7.32, repro,
2006-07-30,0.66, -1.24, 9.72, 2.08, 1.62, 7.39, repro,
2006-07-31,-0.80, -0.52, 5.16, 2.04, 1.57, 7.26, repro,
2006-08-01,0.45, -0.20, 3.84, 2.04, 1.58, 7.25, repro,
2006-08-02,0.04, -1.25, 7.92, 2.07, 1.61, 7.52, repro,
2006-08-03,-0.36, -1.39, 6.72, 2.07, 1.62, 7.51, repro,
2006-08-04,1.12, 0.11, 4.57, 2.13, 1.65, 7.62, repro,
2006-08-05,-0.99, -1.02, 10.65, 2.12, 1.68, 7.67, repro,
2006-08-06,0.06, -1.87, 0.93, 2.10, 1.63, 7.63, repro,
2006-08-07,-0.63, -1.22, 12.80, 2.09, 1.65, 7.66, repro,
2006-08-08,-0.10, -1.25, 3.08, 2.04, 1.57, 7.19, repro,
2006-08-09,0.83, 0.26, 3.85, 2.10, 1.63, 7.44, repro,
2006-08-10,-1.14, 0.04, -1.02, 2.04, 1.58, 7.28, repro,
2006-08-11,-1.96, 0.70, 5.30, 2.04, 1.58, 7.27, repro,
2006-08-12,-0.76, -0.39, 5.19, 2.04, 1.57, 7.24, repro,
2006-08-13,-1.19, 0.12, 9.60, 2.07, 1.61, 7.32, repro,
2006-08-14,-0.31, -1.58, 13.61, 2.08, 1.62, 7.41, repro,
2006-08-15,0.25, -0.93, 5.64, 2.11, 1.59, 7.37, repro,
2006-08-16,-0.94, -0.51, 5.02, 2.04, 1.57, 7.25, repro,
2006-08-17,-0.07, -0.64, 7.22, 2.04, 1.57, 7.23, repro,
2006-08-18,-0.20, 0.47, 0.41, 2.11, 1.66, 7.50, repro,
2006-08-19,0.43, -1.77, 4.90, 2.04, 1.57, 7.19, repro,
2006-08-20,0.61, -2.05, 11.48, 2.04, 1.57, 7.22, repro,
2006-08-21,0.36, -0.96, 9.17, 2.04, 1.59, 7.29, repro,
2006-08-22,0.96, -1.56, 9.43, 2.04, 1.61, 7.34, repro,
2006-08-23,-0.11, -0.70, 15.85, 2.03, 1.60, 7.26, repro,
2006-08-24,-1.97, 0.26, 13.35, 2.05, 1.60, 7.30, repro,
2006-08-25,-0.04, 0.07, 11.40, 2.07, 1.63, 7.50, repro,
2006-08-26,-0.98, -1.54, 14.79, 2.10, 1.66, 7.67, repro,
2006-08-27,0.59, -1.63, 12.89, 2.11, 1.69, 7.73, repro,
2006-08-28,0.59, -1.19, 7.98, 2.12, 1.69, 7.77, repro,
2006-08-29,1.08, -1.03, 3.15, 2.11, 1.68, 7.68, repro,
2006-08-30,-0.44, -1.79, 5.34, 2.11, 1.69, 7.69, repro,
2006-08-31,-0.26, -2.40, 9.79, 2.15, 1.70, 7.77, repro,
2006-09-01,0.53, -2.53, 8.46, 2.17, 1.71, 7.91, repro,
2006-09-02,0.03, -0.86, 4.00, 2.10, 1.69, 7.71, repro,
2006-09-03,-0.49, -1.79, 5.07, 2.12, 1.71, 7.80, repro,
2006-09-04,1.01, -1.59, 2.77, 2.19, 1.71, 7.87, repro,
2006-09-05,-0.01, -1.32, -0.41, 2.20, 1.71, 7.87, repro,
2006-09-06,0.61, -1.07, 4.48, 2.12, 1.69, 7.69, repro,
2006-09-07,-0.87, -1.45, 12.24, 2.15, 1.74, 7.98, repro,
2006-09-08,-0.31, -2.39, 5.26, 2.17, 1.75, 8.01, repro,
2006-09-09,-1.97, -1.82, 11.06, 2.08, 1.64, 7.44, repro,
2006-09-10,0.09, -1.39, 9.03, 2.07, 1.64, 7.41, repro,
2006-09-11,0.29, -1.75, 7.88, 2.15, 1.72, 7.64, repro,
2006-09-12,1.18, -1.84, 6.54, 2.09, 1.65, 7.45, repro,
2006-09-13,0.19, -1.24, 12.97, 2.13, 1.70, 7.66, repro,
2006-09-14,-1.26, -2.24, 7.66, 2.15, 1.68, 7.63, repro,
2006-09-15,1.42, -2.97, 8.61, 2.10, 1.62, 7.38, repro,
2006-09-16,1.04, -1.55, 13.66, 2.07, 1.61, 7.37, repro,
2006-09-17,0.81, -1.39, 11.03, 2.05, 1.60, 7.30, repro,
2006-09-18,-0.15, -1.19, 11.74, 2.05, 1.61, 7.31, repro,
2006-09-19,-0.18, -1.50, 14.76, 2.05, 1.60, 7.34, repro,
2006-09-20,-0.62, -1.32, 17.10, 2.03, 1.59, 7.26, repro,
2006-09-21,0.32, -2.21, 20.77, 2.09, 1.65, 7.49, repro,
2006-09-22,-2.74, -0.80, 19.70, 2.13, 1.69, 7.63, repro,
2006-09-23,-0.49, -1.21, 7.20, 2.09, 1.64, 7.42, repro,
2006-09-24,0.24, -1.18, 11.34, 2.17, 1.67, 7.59, repro,
2006-09-25,0.27, -1.14, 12.10, 2.17, 1.66, 7.64, repro,
2006-09-26,0.38, -1.67, 13.69, 2.12, 1.63, 7.41, repro,
2006-09-27,0.08, -1.73, 3.45, 2.13, 1.63, 7.43, repro,
2006-09-28,0.32, -1.83, 13.29, 2.16, 1.69, 7.62, repro,
2006-09-29,0.26, -2.02, 17.10, 2.12, 1.64, 7.46, repro,
2006-09-30,0.54, -1.68, 18.01, 2.11, 1.67, 7.65, repro,
2006-10-01,0.06, -1.45, 14.74, 2.07, 1.62, 7.38, repro,
2006-10-02,-0.77, -3.03, 12.19, 2.14, 1.69, 7.60, repro,
2006-10-03,0.19, -1.93, 10.46, 2.18, 1.73, 7.76, repro,
2006-10-04,-0.19, -2.00, 14.83, 2.13, 1.64, 7.47, repro,
2006-10-05,-0.78, -2.92, 19.75, 2.11, 1.67, 7.51, repro,
2006-10-06,-0.55, -1.32, 9.87, 2.09, 1.65, 7.56, repro,
2006-10-07,-0.32, -3.57, 4.77, 2.18, 1.70, 7.79, repro,
2006-10-08,-0.79, -1.73, 2.82, 2.11, 1.66, 7.51, repro,
2006-10-09,0.06, -2.13, 9.49, 2.16, 1.74, 7.74, repro,
2006-10-10,-0.05, -3.17, 13.46, 2.09, 1.62, 7.39, repro,
2006-10-11,-1.13, -5.10, 11.47, 2.09, 1.66, 7.58, repro,
2006-10-12,-0.72, -1.73, 19.29, 2.13, 1.64, 7.44, repro,
2006-10-13,-1.16, -1.35, 18.06, 2.10, 1.62, 7.39, repro,
2006-10-14,0.35, -1.10, 12.52, 2.07, 1.65, 7.46, repro,
2006-10-15,-1.07, -1.63, 20.77, 2.07, 1.65, 7.49, repro,
2006-10-16,-0.98, -0.51, 25.53, 2.04, 1.60, 7.34, repro,
2006-10-17,-0.48, -0.13, 16.40, 2.11, 1.67, 7.76, repro,
2006-10-18,-0.54, -0.82, 9.41, 2.11, 1.67, 7.66, repro,
2006-10-19,-1.91, -1.96, 12.60, 2.26, 1.72, 8.14, repro,
2006-10-20,-1.05, -0.90, 18.95, 2.30, 1.78, 8.61, repro,
2006-10-21,-1.15, -1.38, 11.73, 2.33, 1.83, 8.40, repro,
2006-10-22,-0.85, -1.30, 8.31, 2.18, 1.69, 7.96, repro,
2006-10-23,-0.44, -1.26, 6.77, 2.21, 1.73, 7.99, repro,
2006-10-24,-1.38, -1.36, 10.33, 2.25, 1.70, 8.02, repro,
2006-10-25,0.05, -0.54, 10.80, 2.30, 1.76, 8.26, repro,
2006-10-26,0.53, -1.44, 14.88, 2.15, 1.73, 7.89, repro,
2006-10-27,0.12, -0.76, 8.28, 2.10, 1.71, 7.71, repro,
2006-10-28,-1.01, -1.04, 11.84, 2.35, 1.90, 8.76, repro,
2006-10-29,-0.50, -1.30, 11.07, 2.06, 1.63, 7.49, repro,
2006-10-30,-1.47, -1.64, 10.16, 2.00, 1.60, 7.27, repro,
2006-10-31,-0.52, -0.67, 9.72, 2.10, 1.66, 7.61, repro,
2006-11-01,1.00, -2.59, 16.57, 2.16, 1.76, 7.96, repro,
2006-11-02,-0.90, -2.72, 17.17, 2.06, 1.64, 7.52, repro,
2006-11-03,0.18, -0.81, 15.72, 2.09, 1.67, 7.65, repro,
2006-11-04,-0.20, -2.37, 4.75, 2.23, 1.81, 8.21, repro,
2006-11-05,0.61, -1.19, 8.08, 2.16, 1.71, 7.88, repro,
2006-11-06,-0.34, -1.92, 3.34, 2.02, 1.60, 7.31, repro,
2006-11-07,-0.09, -1.93, 7.76, 2.21, 1.76, 7.94, repro,
2006-11-08,-0.10, -3.90, 6.16, 2.20, 1.74, 8.09, repro,
2006-11-09,1.14, -0.78, 15.68, 2.20, 1.75, 7.94, repro,
2006-11-10,0.47, -0.56, 5.49, 2.10, 1.62, 7.47, repro,
2006-11-11,1.79, -0.45, 9.30, 2.15, 1.67, 7.64, repro,
2006-11-12,-1.04, -0.97, 8.58, 2.21, 1.74, 7.80, repro,
2006-11-13,1.53, -0.29, 10.23, 2.19, 1.71, 7.74, repro,
2006-11-14,0.03, -1.54, 13.21, 2.04, 1.60, 7.34, repro,
2006-11-15,0.17, -1.66, 8.09, 2.00, 1.58, 7.18, repro,
2006-11-16,0.56, 0.23, 13.00, 2.02, 1.59, 7.24, repro,
2006-11-17,-0.19, -1.63, 5.37, 2.04, 1.60, 7.29, repro,
2006-11-18,-0.74, -1.19, 4.04, 2.02, 1.60, 7.26, repro,
2006-11-19,0.58, -1.87, 8.84, 2.02, 1.61, 7.29, repro,
2006-11-20,1.81, -0.44, 0.61, 2.02, 1.60, 7.26, repro,
2006-11-21,0.84, -1.84, 3.32, 2.02, 1.59, 7.20, repro,
2006-11-22,-1.11, -2.67, 7.34, 2.01, 1.59, 7.20, repro,
2006-11-23,-0.26, -1.10, 1.14, 2.06, 1.65, 7.50, repro,
2006-11-24,0.26, -2.30, 3.10, 2.11, 1.70, 7.75, repro,
2006-11-25,-0.04, -2.18, 1.52, 2.04, 1.61, 7.30, repro,
2006-11-26,-0.54, -2.47, 6.69, 2.05, 1.61, 7.30, repro,
2006-11-27,-0.58, -3.62, 5.42, 2.07, 1.62, 7.35, repro,
2006-11-28,-2.68, -1.97, 5.84, 2.02, 1.61, 7.27, repro,
2006-11-29,-0.77, -0.80, 1.86, 2.01, 1.61, 7.26, repro,
2006-11-30,-0.49, -0.39, -1.75, 2.01, 1.61, 7.28, repro,
2006-12-01,1.26, -0.95, -8.77, 2.02, 1.61, 7.26, repro,
2006-12-02,0.11, -1.01, -2.78, 2.08, 1.64, 7.44, repro,
2006-12-03,0.92, -0.82, 0.98, 2.03, 1.62, 7.34, repro,
2006-12-04,-0.10, -1.15, -5.27, 2.06, 1.63, 7.36, repro,
2006-12-05,0.89, -1.49, 0.54, 2.03, 1.66, 7.39, repro,
2006-12-06,1.24, -1.76, -1.47, 2.08, 1.73, 7.57, repro,
2006-12-07,1.14, -2.36, 1.55, 2.05, 1.69, 7.48, repro,
2006-12-08,-0.16, -1.87, 7.12, 2.08, 1.70, 7.58, repro,
2006-12-09,-0.23, -2.77, 4.77, 2.13, 1.78, 7.71, repro,
2006-12-10,1.44, -2.78, 8.04, 2.09, 1.69, 7.48, repro,
2006-12-11,-1.15, -1.89, 2.41, 2.01, 1.63, 7.29, repro,
2006-12-12,1.78, -2.89, -3.18, 2.07, 1.69, 7.48, repro,
2006-12-13,-1.45, -2.97, 1.54, 2.02, 1.65, 7.39, repro,
2006-12-14,-0.24, -2.75, 4.78, 2.07, 1.69, 7.51, repro,
2006-12-15,-0.60, -1.86, 3.53, 2.07, 1.71, 7.52, repro,
2006-12-16,0.70, -2.60, -0.62, 2.07, 1.69, 7.42, repro,
2006-12-17,0.33, -2.18, 0.21, 2.12, 1.85, 7.98, repro,
2006-12-18,-0.02, -0.94, 3.20, 2.23, 1.90, 8.34, repro,
2006-12-19,0.13, -1.50, -2.38, 2.14, 1.89, 8.12, repro,
2006-12-20,0.56, -2.23, -0.10, 2.16, 1.84, 7.75, repro,
2006-12-21,2.73, -0.25, -6.91, 2.03, 1.74, 7.54, repro,
2006-12-22,-0.25, -1.01, -0.54, 2.13, 1.85, 8.00, repro,
2006-12-23,1.36, -2.05, -1.44, 2.09, 1.75, 7.76, repro,
2006-12-24,0.69, -1.58, 0.65, 2.04, 1.65, 7.40, repro,
2006-12-25,2.43, -2.52, -1.15, 2.07, 1.74, 7.55, repro,
2006-12-26,0.18, -3.12, -6.86, 2.07, 1.71, 7.54, repro,
2006-12-27,0.42, -3.84, -1.93, 2.12, 1.80, 7.89, repro,
2006-12-28,-2.02, -3.70, 5.75, 2.37, 2.16, 9.32, repro,
2006-12-29,0.06, -3.52, -15.58, 2.20, 1.86, 8.18, repro,
2006-12-30,-0.11, -1.48, -5.56, 2.08, 1.73, 7.63, repro,
2006-12-31,0.23, -0.85, -0.90, 2.28, 1.97, 8.62, repro,
2007-01-01,0.23, -1.81, 0.03, 2.21, 1.95, 8.54, repro,
2007-01-02,1.42, -1.78, 3.00, 2.20, 1.91, 8.28, repro,
2007-01-03,0.63, -2.71, 3.17, 2.04, 1.71, 7.59, repro,
2007-01-04,0.27, -2.59, 0.34, 2.01, 1.66, 7.40, repro,
2007-01-05,0.63, -2.73, -8.69, 2.01, 1.65, 7.38, repro,
2007-01-06,0.38, -1.64, -3.22, 2.06, 1.76, 7.68, repro,
2007-01-07,0.12, -1.04, -5.89, 2.05, 1.66, 7.46, repro,
2007-01-08,-0.61, -1.34, -5.79, 2.08, 1.69, 7.60, repro,
2007-01-09,0.00, -1.28, -4.65, 2.05, 1.65, 7.36, repro,
2007-01-10,-0.71, -1.01, -2.69, 2.09, 1.67, 7.47, repro,
2007-01-11,0.64, -1.68, -2.95, 2.11, 1.64, 7.45, repro,
2007-01-12,0.25, -3.59, -5.39, 2.01, 1.60, 7.21, repro,
2007-01-13,0.36, -1.56, -5.83, 1.99, 1.59, 7.15, repro,
2007-01-14,0.47, -1.09, -11.04, 2.00, 1.58, 7.10, repro,
2007-01-15,-0.03, -0.92, -9.43, 1.99, 1.58, 7.14, repro,
2007-01-16,0.65, -0.88, -8.60, 2.03, 1.60, 7.21, repro,
2007-01-17,-0.43, -1.77, -3.07, 2.01, 1.61, 7.22, repro,
2007-01-18,0.54, -1.83, -12.22, 2.05, 1.68, 7.44, repro,
2007-01-19,0.52, -1.49, -3.53, 2.08, 1.65, 7.60, repro,
2007-01-20,-1.50, 0.95, -5.85, 2.07, 1.60, 7.40, repro,
2007-01-21,-1.15, -0.15, 0.40, 1.98, 1.57, 7.03, repro,
2007-01-22,0.05, -1.22, -5.97, 1.97, 1.57, 7.01, repro,
2007-01-23,0.34, -1.43, -9.12, 1.97, 1.58, 7.00, repro,
2007-01-24,-0.45, -1.46, -7.72, 1.97, 1.57, 7.01, repro,
2007-01-25,0.16, -1.90, -8.24, 2.03, 1.63, 7.20, repro,
2007-01-26,-0.36, -1.31, -4.97, 1.97, 1.58, 7.02, repro,
2007-01-27,-0.15, -1.36, -4.84, 1.96, 1.57, 6.96, repro,
2007-01-28,-1.61, -2.07, -1.53, 1.97, 1.57, 6.92, repro,
2007-01-29,-0.39, -0.56, -4.16, 1.97, 1.56, 6.95, repro,
2007-01-30,0.59, -1.55, -1.05, 1.98, 1.57, 7.02, repro,
2007-01-31,-0.64, -0.80, -0.83, 1.98, 1.58, 7.01, repro,
2007-02-01,-0.55, 0.04, 1.78, 1.99, 1.61, 7.10, repro,
2007-02-02,1.13, 0.31, -3.18, 2.00, 1.58, 7.06, repro,
2007-02-03,0.79, -0.37, -4.80, 2.02, 1.59, 7.15, repro,
2007-02-04,0.29, 0.11, -2.24, 1.98, 1.58, 7.03, repro,
2007-02-05,-0.13, -1.18, -2.61, 1.98, 1.58, 7.02, repro,
2007-02-06,0.53, -1.05, -1.18, 2.01, 1.59, 7.06, repro,
2007-02-07,0.21, -0.51, -5.78, 2.04, 1.66, 7.32, repro,
2007-02-08,-0.55, -0.33, -6.04, 2.08, 1.64, 7.38, repro,
2007-02-09,0.02, -1.11, -3.72, 2.01, 1.62, 7.17, repro,
2007-02-10,-0.73, -1.30, 6.33, 2.00, 1.59, 7.10, repro,
2007-02-11,0.13, -1.22, -6.43, 1.99, 1.59, 7.11, repro,
2007-02-12,0.50, -0.17, -5.64, 1.97, 1.57, 6.96, repro,
2007-02-13,-1.17, -0.18, -6.46, 1.96, 1.57, 6.94, repro,
2007-02-14,0.44, -0.21, -6.71, 1.96, 1.57, 6.96, repro,
2007-02-15,0.04, 0.93, -3.96, 1.99, 1.59, 7.07, repro,
2007-02-16,0.80, 0.42, -2.04, 1.98, 1.59, 7.07, repro,
2007-02-17,-0.16, 0.92, -1.74, 2.04, 1.62, 7.18, repro,
2007-02-18,-0.34, 1.86, -4.76, 1.98, 1.58, 7.05, repro,
2007-02-19,0.10, 0.71, 2.25, 1.96, 1.58, 7.01, repro,
2007-02-20,-0.87, -0.11, 6.56, 1.98, 1.57, 7.00, repro,
2007-02-21,-0.00, 0.36, 3.32, 1.98, 1.58, 7.03, repro,
2007-02-22,0.76, 0.16, -0.01, 2.00, 1.59, 7.13, repro,
2007-02-23,-1.85, -0.27, -2.36, 2.19, 1.70, 7.58, repro,
2007-02-24,1.51, -0.07, 0.63, 1.97, 1.58, 7.05, repro,
2007-02-25,-3.03, -1.06, 0.02, 1.98, 1.58, 7.09, repro,
2007-02-26,-1.09, -0.05, -0.08, 1.99, 1.58, 7.03, repro,
2007-02-27,-2.03, -0.08, 3.18, 1.98, 1.57, 7.03, repro,
2007-02-28,-1.11, -0.25, 8.22, 1.99, 1.58, 7.07, repro,
2007-03-01,0.71, 0.42, 1.64, 2.04, 1.64, 7.26, repro,
2007-03-02,-1.38, 0.10, -1.82, 2.03, 1.64, 7.30, repro,
2007-03-03,-0.03, 1.43, -3.74, 2.00, 1.61, 7.12, repro,
2007-03-04,0.26, 0.40, -3.52, 2.00, 1.61, 7.10, repro,
2007-03-05,-0.46, -0.24, -1.32, 2.02, 1.62, 7.22, repro,
2007-03-06,-0.63, -0.73, -4.19, 2.02, 1.63, 7.27, repro,
2007-03-07,-0.52, 1.35, -0.56, 2.01, 1.62, 7.19, repro,
2007-03-08,-0.77, 0.89, -0.23, 1.99, 1.61, 7.15, repro,
2007-03-09,-0.93, -0.66, -1.17, 2.01, 1.62, 7.19, repro,
2007-03-10,-0.14, -0.01, -1.64, 2.09, 1.65, 7.41, repro,
2007-03-11,-0.05, -0.23, -0.56, 2.03, 1.62, 7.23, repro,
2007-03-12,-1.18, -0.17, -3.39, 2.02, 1.60, 7.15, repro,
2007-03-13,-1.68, 0.40, -6.32, 1.97, 1.57, 7.03, repro,
2007-03-14,0.79, 0.61, -5.32, 1.98, 1.57, 7.03, repro,
2007-03-15,0.13, 0.72, -2.17, 2.03, 1.60, 7.16, repro,
2007-03-16,-1.19, -0.19, -4.91, 2.03, 1.61, 7.17, repro,
2007-03-17,-0.21, 1.32, 1.31, 1.99, 1.57, 7.04, repro,
2007-03-18,-0.03, 0.86, 5.57, 1.99, 1.56, 6.98, repro,
2007-03-19,-0.27, 0.56, -1.39, 1.98, 1.56, 6.98, repro,
2007-03-20,-0.84, 0.76, 7.43, 2.06, 1.58, 7.09, repro,
2007-03-21,-2.01, 1.33, 5.93, 2.07, 1.59, 7.14, repro,
2007-03-22,-2.60, -1.43, 9.17, 2.00, 1.58, 7.08, repro,
2007-03-23,-0.66, -0.63, -0.78, 2.02, 1.60, 7.18, repro,
2007-03-24,-1.92, -0.52, -2.04, 2.02, 1.60, 7.20, repro,
2007-03-25,-1.40, 0.29, 8.41, 2.00, 1.57, 7.07, repro,
2007-03-26,-2.61, -3.40, -0.70, 2.08, 1.65, 7.49, repro,
2007-03-27,-2.18, 0.84, 2.40, 2.05, 1.59, 7.20, repro,
2007-03-28,-1.13, 0.92, 2.53, 2.05, 1.59, 7.17, repro,
2007-03-29,-1.30, 0.89, -1.61, 2.00, 1.56, 7.05, repro,
2007-03-30,-1.25, 0.07, -3.23, 1.99, 1.56, 6.98, repro,
2007-03-31,-1.62, 1.01, 4.44, 1.98, 1.55, 6.95, repro,
2007-04-01,-1.90, 0.52, 5.34, 1.98, 1.56, 6.97, repro,
2007-04-02,-2.25, 0.31, 0.55, 2.00, 1.57, 7.04, repro,
2007-04-03,-1.06, -0.48, -2.48, 2.04, 1.61, 7.23, repro,
2007-04-04,-0.86, 0.01, -3.68, 2.08, 1.66, 7.31, repro,
2007-04-05,-0.84, 0.27, -2.43, 2.12, 1.71, 7.48, repro,
2007-04-06,-1.17, -0.42, -4.37, 2.03, 1.59, 7.07, repro,
2007-04-07,-0.87, -0.45, 0.59, 2.02, 1.60, 7.09, repro,
2007-04-08,-0.56, -1.12, 3.71, 2.00, 1.56, 7.00, repro,
2007-04-09,0.44, -1.40, 5.05, 2.01, 1.57, 7.06, repro,
2007-04-10,-0.75, -0.79, 1.83, 2.04, 1.59, 7.17, repro,
2007-04-11,-1.22, -0.08, 7.36, 1.99, 1.55, 6.95, repro,
2007-04-12,-1.55, 0.04, 7.83, 2.04, 1.60, 7.09, repro,
2007-04-13,-2.11, -0.23, 2.86, 2.01, 1.57, 7.00, repro,
2007-04-14,-1.35, -1.36, 3.24, 2.04, 1.58, 7.13, repro,
2007-04-15,-1.11, 0.49, 2.99, 2.02, 1.57, 7.11, repro,
2007-04-16,-0.15, -0.32, 8.25, 2.01, 1.56, 7.04, repro,
2007-04-17,-1.35, -0.18, 3.99, 1.99, 1.55, 6.94, repro,
2007-04-18,-1.20, -0.30, 1.76, 2.00, 1.56, 6.98, repro,
2007-04-19,-0.65, -1.38, 1.41, 2.00, 1.56, 7.01, repro,
2007-04-20,-0.53, -1.29, 2.29, 2.01, 1.56, 7.07, repro,
2007-04-21,-0.17, -0.82, 3.01, 2.01, 1.56, 7.08, repro,
2007-04-22,-0.56, -1.59, 6.78, 2.01, 1.55, 7.01, repro,
2007-04-23,-0.31, -0.77, -0.17, 2.04, 1.58, 7.12, repro,
2007-04-24,-0.60, -0.52, -6.36, 2.05, 1.58, 7.17, repro,
2007-04-25,-0.35, -0.11, -1.99, 2.11, 1.63, 7.35, repro,
2007-04-26,-0.72, -0.63, 1.14, 2.02, 1.56, 7.08, repro,
2007-04-27,-0.77, -0.66, -3.07, 2.01, 1.56, 7.08, repro,
2007-04-28,-1.59, -0.55, 1.82, 2.00, 1.55, 7.02, repro,
2007-04-29,-1.50, -1.49, -3.42, 2.00, 1.56, 7.04, repro,
2007-04-30,-0.02, -0.82, -2.00, 2.00, 1.54, 6.98, repro,
2007-05-01,-1.04, -0.78, -3.25, 2.00, 1.55, 7.02, repro,
2007-05-02,-1.32, -3.42, -2.03, 2.13, 1.62, 7.57, repro,
2007-05-03,-1.73, -0.70, 3.08, 2.08, 1.57, 7.32, repro,
2007-05-04,-0.54, -1.94, -0.90, 2.02, 1.55, 7.04, repro,
2007-05-05,-1.60, 0.75, -5.27, 2.03, 1.60, 7.17, repro,
2007-05-06,0.38, -1.84, -3.32, 2.03, 1.54, 7.01, repro,
2007-05-07,1.32, 0.29, -9.97, 2.06, 1.57, 7.20, repro,
2007-05-09,0.48, -1.25, 1.75, 2.03, 1.55, 7.10, repro,
2007-05-10,0.32, -1.24, -2.89, 2.16, 1.67, 7.62, repro,
2007-05-11,0.64, -1.28, -2.89, 2.11, 1.62, 7.44, repro,
2007-05-12,-0.49, -1.16, -1.18, 2.02, 1.55, 7.03, repro,
2007-05-13,0.78, 0.06, -3.18, 2.07, 1.59, 7.24, repro,
2007-05-14,0.64, 0.01, -3.41, 2.08, 1.58, 7.25, repro,
2007-05-15,-0.34, -1.24, 1.51, 2.04, 1.55, 7.12, repro,
2007-05-16,0.01, -1.18, -0.90, 2.02, 1.56, 7.07, repro,
2007-05-17,-0.14, -0.78, 2.76, 2.05, 1.59, 7.23, repro,
2007-05-18,-1.10, -1.81, -0.80, 2.13, 1.65, 7.47, repro,
2007-05-19,-0.20, -0.10, -2.27, 2.13, 1.65, 7.43, repro,
2007-05-20,0.23, -0.73, -0.16, 2.11, 1.63, 7.41, repro,
2007-05-21,0.60, -1.49, 3.88, 2.06, 1.58, 7.18, repro,
2007-05-22,0.14, -1.65, 3.77, 2.05, 1.58, 7.16, repro,
2007-05-23,-2.73, -1.60, 5.59, 2.07, 1.58, 7.17, repro,
2007-05-24,0.00, -1.77, 2.79, 2.15, 1.69, 7.56, repro,
2007-05-25,-0.16, -0.44, -0.26, 2.05, 1.57, 7.17, repro,
2007-05-26,-0.41, -1.24, -2.83, 2.08, 1.60, 7.26, repro,
2007-05-27,-0.94, -1.25, 4.69, 2.03, 1.56, 7.06, repro,
2007-05-28,-2.36, -1.49, 6.49, 2.07, 1.58, 7.12, repro,
2007-05-29,-0.41, -1.50, 6.39, 2.02, 1.56, 7.04, repro,
2007-05-30,-0.53, -1.80, -1.37, 2.10, 1.57, 7.23, repro,
2007-05-31,-0.12, -0.30, -1.39, 2.09, 1.60, 7.25, repro,
2007-06-01,-0.25, -1.35, 1.78, 2.04, 1.56, 7.11, repro,
2007-06-02,-0.41, -1.45, 2.53, 2.02, 1.55, 7.04, repro,
2007-06-03,0.25, -1.99, 1.02, 2.02, 1.55, 6.99, repro,
2007-06-04,-2.26, 0.50, 7.23, 2.07, 1.61, 7.33, repro,
2007-06-05,-1.30, -1.48, 1.71, 2.10, 1.58, 7.30, repro,
2007-06-06,-0.79, -1.32, 8.08, 2.04, 1.55, 7.04, repro,
2007-06-07,-0.99, -0.57, 4.93, 2.03, 1.55, 7.01, repro,
2007-06-08,0.22, -0.73, 5.55, 2.02, 1.55, 7.02, repro,
2007-06-09,0.28, -1.57, -1.19, 2.04, 1.58, 7.13, repro,
2007-06-10,-1.59, -0.98, 3.12, 2.04, 1.56, 7.11, repro,
2007-06-11,-1.78, -1.12, 7.11, 2.06, 1.66, 7.31, repro,
2007-06-12,-1.03, -0.10, 6.72, 2.09, 1.65, 7.33, repro,
2007-06-13,1.09, -0.91, 0.87, 2.07, 1.60, 7.20, repro,
2007-06-14,-0.73, -0.21, -2.52, 2.07, 1.59, 7.15, repro,
2007-06-15,-0.44, -1.02, 5.55, 2.02, 1.55, 7.00, repro,
2007-06-16,-1.12, -2.57, -1.40, 2.02, 1.57, 7.08, repro,
2007-06-17,-1.54, -1.23, 1.80, 2.03, 1.55, 7.07, repro,
2007-06-18,0.67, -0.67, 4.17, 2.02, 1.54, 6.98, repro,
2007-06-19,-0.11, -0.79, -1.19, 2.03, 1.55, 7.05, repro,
2007-06-20,-0.44, -0.16, -7.65, 2.02, 1.55, 7.03, repro,
2007-06-21,0.43, -0.29, 0.32, 2.01, 1.55, 6.98, repro,
2007-06-22,-0.21, -1.19, -0.63, 2.02, 1.55, 7.07, repro,
2007-06-23,-0.27, -0.09, -1.79, 2.04, 1.55, 7.08, repro,
2007-06-24,-1.93, 0.63, -2.58, 2.06, 1.60, 7.24, repro,
2007-06-25,-0.73, -0.68, 0.57, 2.05, 1.56, 7.09, repro,
2007-06-26,0.73, -0.95, -5.29, 2.01, 1.54, 6.97, repro,
2007-06-27,0.70, -1.28, -2.00, 2.03, 1.56, 7.10, repro,
2007-06-28,0.77, -0.54, -4.65, 2.04, 1.55, 7.09, repro,
2007-06-29,1.22, -0.90, 1.08, 2.03, 1.55, 7.05, repro,
2007-06-30,0.69, 0.19, -0.36, 2.02, 1.55, 7.04, repro,
2007-07-01,-0.84, -0.42, 3.73, 2.01, 1.55, 7.03, repro,
2007-07-02,0.70, -0.65, 9.32, 2.02, 1.56, 7.11, repro,
2007-07-03,0.78, -0.48, -3.24, 2.04, 1.56, 7.11, repro,
2007-07-04,0.73, -0.45, 0.74, 2.03, 1.55, 7.06, repro,
2007-07-05,-1.17, -1.00, -2.65, 2.03, 1.56, 7.09, repro,
2007-07-06,1.28, -2.10, -4.54, 2.03, 1.57, 7.11, repro,
2007-07-07,1.12, -0.33, 3.90, 2.02, 1.56, 7.06, repro,
2007-07-08,-1.34, -2.38, 8.95, 2.04, 1.56, 7.10, repro,
2007-07-09,1.05, -1.20, 3.71, 2.08, 1.61, 7.24, repro,
2007-07-10,-0.79, -0.46, 1.28, 2.04, 1.55, 7.06, repro,
2007-07-11,0.59, -0.19, 0.42, 2.03, 1.56, 7.07, repro,